User: anonymous   Login
Location: Guayaquil
(2.1667°S, 79.9000°W)
Time: 01:49:13
(UTC-05:00)
Language:

NEE 01 PEGASUS - Orbit

View from above orbital plane
View from above orbital plane
View from above satellite
View from above satellite

Ground track
Ground track

The orbit data is extracted from the following two-line orbital elements,

1 39151U 13018B   17147.74806827 +.00000208 +00000-0 +34622-4 0  9995
2 39151 097.9829 239.3967 0018530 114.8404 245.4737 14.79707943220516
Epoch (UTC): 27 May 2017 17:57:13
Eccentricity: 0.0018530
inclination: 97.9829°
perigee height: 617 km
apogee height: 643 km
right ascension of ascending node: 239.3967°
argument of perigee: 114.8404°
revolutions per day: 14.79707943
mean anomaly at epoch: 245.4737°
orbit number at epoch: 22051

The dashed part of the orbit path shows where the satellite is in the earth's shadow,  

DLR